| time (UTC) | temp F | wind direction | speed MPH | gust MPH | rain 1hr in | rain 24hr in | rain mn in | humidity % | barometer mb |
| 20260903030016 | 84 | 201 | 1.0 | 4.0 | 0.00 | 0.00 | 0.00 | 75 | 1011.9 |
| 20260903024514 | 84 | 199 | 1.0 | 5.0 | 0.00 | 0.00 | 0.00 | 76 | 1011.9 |
| 20260903023013 | 84 | 207 | 1.0 | 6.0 | 0.00 | 0.00 | 0.00 | 76 | 1012.0 |
| 20260903021518 | 84 | 186 | 3.0 | 5.0 | 0.00 | 0.00 | 0.00 | 77 | 1011.8 |
| 20260903020013 | 84 | 184 | 2.0 | 7.0 | 0.00 | 0.00 | 0.00 | 78 | 1011.8 |
| 20260903014512 | 84 | 200 | 2.0 | 5.0 | 0.00 | 0.00 | 0.00 | 79 | 1011.7 |
| 20260903013014 | 85 | 216 | 1.0 | 4.0 | 0.00 | 0.00 | 0.00 | 78 | 1011.6 |
| 20260903011512 | 85 | 206 | 2.0 | 5.0 | 0.00 | 0.00 | 0.00 | 78 | 1011.3 |
| 20260903010011 | 85 | 200 | 2.0 | 5.0 | 0.00 | 0.00 | 0.00 | 78 | 1011.2 |
| 20260903004512 | 85 | 194 | 0.0 | 3.0 | 0.00 | 0.00 | 0.00 | 77 | 1011.3 |
| 20260903003010 | 86 | 228 | 0.0 | 2.0 | 0.00 | 0.00 | 0.00 | 76 | 1011.3 |
| 20260903001509 | 87 | 196 | 0.0 | 2.0 | 0.00 | 0.00 | 0.00 | 74 | 1011.3 |
| 20260903000016 | 88 | 209 | 0.0 | 2.0 | 0.00 | 0.00 | 0.00 | 72 | 1011.4 |
| 20260902234515 | 89 | 201 | 1.0 | 4.0 | 0.00 | 0.00 | 0.00 | 71 | 1011.4 |
| 20260902233007 | 89 | 192 | 2.0 | 5.0 | 0.00 | 0.00 | 0.00 | 70 | 1011.4 |
| 20260902231518 | 90 | 190 | 1.0 | 5.0 | 0.00 | 0.00 | 0.00 | 69 | 1011.4 |
| 20260902230005 | 91 | 178 | 3.0 | 6.0 | 0.00 | 0.00 | 0.00 | 68 | 1011.5 |
| 20260902224505 | 91 | 180 | 1.0 | 5.0 | 0.00 | 0.00 | 0.00 | 67 | 1011.6 |
| 20260902223004 | 92 | 220 | 1.0 | 7.0 | 0.00 | 0.00 | 0.00 | 65 | 1011.6 |
| 20260902221503 | 92 | 176 | 2.0 | 5.0 | 0.00 | 0.00 | 0.00 | 64 | 1011.8 |
| 20260902220002 | 93 | 205 | 1.0 | 5.0 | 0.00 | 0.00 | 0.00 | 63 | 1011.6 |
| 20260902214501 | 93 | 180 | 2.0 | 7.0 | 0.00 | 0.00 | 0.00 | 60 | 1011.8 |
| 20260902213101 | 93 | 194 | 3.0 | 8.0 | 0.00 | 0.00 | 0.00 | 60 | 1011.8 |
| 20260902211559 | 95 | 217 | 3.0 | 9.0 | 0.00 | 0.00 | 0.00 | 58 | 1011.9 |
| 20260902210058 | 94 | 210 | 0.0 | 7.0 | 0.00 | 0.00 | 0.00 | 58 | 1011.9 |
| 20260902204557 | 94 | 186 | 3.0 | 10.0 | 0.00 | 0.00 | 0.00 | 57 | 1011.9 |
| 20260902203056 | 94 | 202 | 5.0 | 12.0 | 0.00 | 0.00 | 0.00 | 57 | 1012.0 |
| 20260902201555 | 95 | 238 | 1.0 | 7.0 | 0.00 | 0.00 | 0.00 | 56 | 1012.0 |
| 20260902200054 | 95 | 198 | 1.0 | 11.0 | 0.00 | 0.00 | 0.00 | 57 | 1012.3 |
| 20260902194557 | 94 | 165 | 1.0 | 7.0 | 0.00 | 0.00 | 0.00 | 57 | 1012.3 |
| 20260902193049 | 94 | 273 | 2.0 | 8.0 | 0.00 | 0.00 | 0.00 | 56 | 1012.4 |
| 20260902191546 | 94 | 360 | 1.0 | 5.0 | 0.00 | 0.00 | 0.00 | 57 | 1012.5 |
| 20260902190043 | 94 | 271 | 0.0 | 7.0 | 0.00 | 0.00 | 0.00 | 59 | 1012.5 |
| 20260902184552 | 93 | 236 | 2.0 | 11.0 | 0.00 | 0.00 | 0.00 | 56 | 1012.6 |
| 20260902183038 | 93 | 193 | 1.0 | 6.0 | 0.00 | 0.00 | 0.00 | 60 | 1012.8 |
| 20260902181542 | 93 | 180 | 1.0 | 5.0 | 0.00 | 0.00 | 0.00 | 62 | 1012.8 |
| 20260902180035 | 92 | 213 | 1.0 | 8.0 | 0.00 | 0.00 | 0.00 | 62 | 1013.0 |
| 20260902174531 | 91 | 213 | 1.0 | 9.0 | 0.00 | 0.00 | 0.00 | 63 | 1013.0 |
| 20260902173029 | 91 | 199 | 1.0 | 7.0 | 0.00 | 0.00 | 0.00 | 64 | 1013.0 |
| 20260902171528 | 90 | 237 | 0.0 | 7.0 | 0.00 | 0.00 | 0.00 | 67 | 1013.2 |
| 20260902170023 | 89 | 225 | 0.0 | 8.0 | 0.00 | 0.00 | 0.00 | 67 | 1013.2 |
| 20260902164525 | 88 | 194 | 2.0 | 7.0 | 0.00 | 0.00 | 0.00 | 67 | 1013.2 |
| 20260902163020 | 88 | 209 | 1.0 | 6.0 | 0.00 | 0.00 | 0.00 | 67 | 1013.4 |
| 20260902161521 | 87 | 150 | 0.0 | 3.0 | 0.00 | 0.00 | 0.00 | 69 | 1013.6 |
| 20260902160011 | 87 | 349 | 1.0 | 5.0 | 0.00 | 0.00 | 0.00 | 69 | 1013.8 |
| 20260902154520 | 86 | 215 | 0.0 | 3.0 | 0.00 | 0.00 | 0.00 | 71 | 1013.8 |
| 20260902151544 | 84 | 350 | 0.0 | 3.0 | 0.00 | 0.00 | 0.00 | 73 | 1013.9 |
| 20260902150043 | 84 | 23 | 3.0 | 8.0 | 0.00 | 0.00 | 0.00 | 72 | 1014.2 |
| 20260902144540 | 84 | 181 | 2.0 | 10.0 | 0.00 | 0.00 | 0.00 | 72 | 1013.4 |
| 20260902143040 | 82 | 222 | 2.0 | 5.0 | 0.00 | 0.00 | 0.00 | 74 | 1013.3 |
| 20260902141537 | 82 | 258 | 1.0 | 6.0 | 0.00 | 0.00 | 0.00 | 75 | 1013.5 |
| 20260902140035 | 82 | 178 | 2.0 | 6.0 | 0.00 | 0.00 | 0.00 | 75 | 1013.6 |
| 20260902134538 | 82 | 194 | 1.0 | 5.0 | 0.00 | 0.00 | 0.00 | 75 | 1013.7 |
| 20260902133035 | 80 | 227 | 2.0 | 5.0 | 0.00 | 0.00 | 0.00 | 76 | 1013.6 |
| 20260902131533 | 79 | 256 | 1.0 | 5.0 | 0.00 | 0.00 | 0.00 | 80 | 1013.7 |
| 20260902130032 | 77 | 244 | 0.0 | 3.0 | 0.00 | 0.00 | 0.00 | 83 | 1013.9 |
| 20260902124532 | 77 | 196 | 0.0 | 6.0 | 0.00 | 0.00 | 0.00 | 83 | 1013.8 |
| 20260902123033 | 77 | 177 | 0.0 | 5.0 | 0.00 | 0.00 | 0.00 | 81 | 1013.8 |
| 20260902121530 | 77 | 207 | 2.0 | 5.0 | 0.00 | 0.00 | 0.00 | 81 | 1013.7 |
| 20260902120033 | 77 | 196 | 1.0 | 4.0 | 0.00 | 0.00 | 0.00 | 81 | 1013.6 |
| 20260902114537 | 77 | 225 | 0.0 | 4.0 | 0.00 | 0.01 | 0.00 | 81 | 1013.6 |
| 20260902113035 | 76 | 257 | 0.0 | 2.0 | 0.00 | 0.01 | 0.00 | 82 | 1013.5 |
| 20260902111528 | 76 | 257 | 0.0 | 2.0 | 0.00 | 0.01 | 0.00 | 82 | 1013.7 |
| 20260902110027 | 76 | 257 | 0.0 | 2.0 | 0.00 | 0.01 | 0.00 | 81 | 1013.8 |
| 20260902104526 | 77 | 242 | 0.0 | 4.0 | 0.00 | 0.01 | 0.00 | 81 | 1013.8 |
| 20260902103028 | 77 | 245 | 0.0 | 4.0 | 0.00 | 0.01 | 0.00 | 80 | 1013.8 |
| 20260902101526 | 77 | 215 | 1.0 | 3.0 | 0.00 | 0.01 | 0.00 | 79 | 1013.6 |
| 20260902100024 | 78 | 234 | 0.0 | 3.0 | 0.00 | 0.01 | 0.00 | 78 | 1013.6 |
| 20260902094519 | 78 | 217 | 0.0 | 2.0 | 0.00 | 0.02 | 0.00 | 78 | 1013.7 |
| 20260902093016 | 79 | 205 | 0.0 | 3.0 | 0.00 | 0.02 | 0.00 | 76 | 1013.6 |
| 20260902091514 | 79 | 197 | 1.0 | 4.0 | 0.00 | 0.02 | 0.00 | 75 | 1013.4 |
| 20260902090011 | 80 | 227 | 1.0 | 5.0 | 0.00 | 0.02 | 0.00 | 74 | 1013.3 |
| 20260902084513 | 80 | 219 | 0.0 | 4.0 | 0.00 | 0.02 | 0.00 | 73 | 1013.3 |
| 20260902083010 | 80 | 248 | 0.0 | 4.0 | 0.00 | 0.02 | 0.00 | 73 | 1013.2 |
| 20260902081508 | 80 | 202 | 1.0 | 4.0 | 0.00 | 0.02 | 0.00 | 73 | 1013.1 |
| 20260902080010 | 80 | 211 | 0.0 | 5.0 | 0.00 | 0.02 | 0.00 | 74 | 1013.1 |
| 20260902074506 | 80 | 222 | 1.0 | 4.0 | 0.00 | 0.02 | 0.00 | 74 | 1013.1 |
| 20260902073005 | 81 | 226 | 1.0 | 5.0 | 0.00 | 0.02 | 0.00 | 74 | 1013.0 |
| 20260902071504 | 81 | 205 | 1.0 | 5.0 | 0.00 | 0.02 | 0.00 | 75 | 1012.9 |
| 20260902070004 | 81 | 221 | 0.0 | 2.0 | 0.00 | 0.02 | 0.00 | 75 | 1013.0 |
| 20260902064502 | 81 | 225 | 0.0 | 3.0 | 0.00 | 0.02 | 0.00 | 75 | 1013.2 |
| 20260902063102 | 81 | 236 | 0.0 | 5.0 | 0.00 | 0.02 | 0.00 | 76 | 1013.2 |
| 20260902060108 | 80 | 206 | 1.0 | 5.0 | 0.00 | 0.02 | 0.00 | 78 | 1013.2 |
| 20260902054557 | 81 | 215 | 1.0 | 6.0 | 0.00 | 0.02 | 0.00 | 77 | 1013.2 |
| 20260902053102 | 82 | 202 | 1.0 | 4.0 | 0.00 | 0.02 | 0.00 | 75 | 1013.2 |
| 20260902051553 | 82 | 224 | 0.0 | 4.0 | 0.00 | 0.02 | 0.00 | 75 | 1013.3 |
| 20260902050104 | 82 | 191 | 1.0 | 4.0 | 0.00 | 0.02 | 0.00 | 75 | 1013.2 |
| 20260902044552 | 82 | 202 | 2.0 | 7.0 | 0.00 | 0.02 | 0.02 | 75 | 1013.3 |
| 20260902043052 | 83 | 212 | 2.0 | 7.0 | 0.00 | 0.02 | 0.02 | 74 | 1013.2 |
| 20260902041550 | 82 | 165 | 2.0 | 7.0 | 0.00 | 0.02 | 0.02 | 75 | 1013.2 |
| 20260902040049 | 82 | 222 | 1.0 | 6.0 | 0.00 | 0.02 | 0.02 | 75 | 1013.3 |
| 20260902034549 | 83 | 202 | 1.0 | 6.0 | 0.00 | 0.02 | 0.02 | 75 | 1013.3 |
| 20260902033050 | 83 | 200 | 2.0 | 6.0 | 0.00 | 0.02 | 0.02 | 75 | 1013.4 |
| 20260902031547 | 83 | 205 | 2.0 | 6.0 | 0.00 | 0.02 | 0.02 | 74 | 1013.5 |